Weather in Mezgdurechensk

Russia / Kemerovo Oblast     53°41′11″N   88°04′13″E
temp.,
°C
wind,
m/s
gust,
m/s
humid.,
%
clouds,
%
prec.,
mm/h
press.,
hPa
HPBL,
m
22 april, thu
thu2201:00−7nw00965 0.0 102810
04:00−8ese009777 0.0 102912
07:00−6ene019094 0.0 103255
10:00−1nne2371100 0.0 1033648
13:00+3ne245190 0.1 10331789
16:00+4ne454599 0.1 10341984
19:00+2ne496226 0.2 1036673
22:00−3nne38803 0.0 1039187
23 april, fri
fri2301:00−4ne27833 0.0 1039162
04:00−6ene129317 0.0 104034
07:00−5nne13845 0.0 104098
10:00+2ne235796 0.0 1039734
13:00+5ne2350100 0.0 10381448
16:00+5ne4549100 0.0 10371757
19:00+3nne3865100 0.0 1037300
22:00−1nne257990 0.0 1037120
24 april, sat
sat2401:00−4e019426 0.0 103622
04:00−5ese119849 0.0 103414
07:00−3e00885 0.0 103358
10:00+3nne12625 0.0 1031734
13:00+6nnw235299 0.1 10291669
16:00+6nw3457100 0.4 10291414
19:00+3nw2577100 0.8 1030162
22:00−1wsw1190100 0.0 103110
25 april, sun
sun2501:00−2sw229590 0.0 103224
04:00−3ssw119765 0.0 103220
07:00−1sw1295100 0.1 1033164
10:00+1w1287100 0.1 1033563
13:00+4nw2269100 0.3 10321093
16:00+6n226088 0.2 10311282
19:00+5ne017141 0.3 103111
22:000se11857 0.0 103210
26 april, mon
mon2601:00−1ese118926 0.0 103210
04:00−2ese11915 0.0 103210
07:00−1ese11865 0.0 103359
10:00+6ese12635 0.0 1031560
13:00+9e12515 0.0 10291260
16:00+11e12465 0.0 10271622
19:00+9e115963 0.0 102720
22:00+4ese1174100 0.0 102810